[[{"header":{"parameterUnit":"m.s-1","parameterCategory":1,"la1":30.2991,"la2":30.254,"lo1":-89.0895,"lo2":-89.0444,"dy":0.0017,"dx":0.0017,"nx":28,"ny":28,"refTime":"2025-11-23T09:00:00:Z","depth":0,"parameterNumber":2,"parameterNumberName":"U-component_of_WINDS"},"data":[0,0,0,0,0,0,0,0,0,0,0,0,0,0,0,0,0,0,0,0,0,0,0,0,0,0,0,0,0,0,0,0,0,0,0,0,0,0,0,0,0,0,0,0,0,0,0,0,0,0,0,0,0,0,0,0,0,0,-3.4028,-3.4029,0,-3.4147,-3.4148,-3.4149,-3.4097,-3.4094,-3.4091,-3.4088,-3.4213,-3.4219,-3.4225,0,0,0,0,0,0,0,0,0,0,0,0,0,-3.3758,-3.3763,-3.4027,-3.4029,-3.403,-3.4146,-3.4148,-3.415,-3.4097,-3.4094,-3.409,-3.4087,-3.4211,-3.4218,-3.4225,0,0,0,0,0,0,0,0,0,0,0,0,0,-3.3876,-3.3765,-3.4027,-3.4018,-3.4018,-3.4146,-3.4148,-3.415,-3.4098,-3.4093,-3.4089,-3.4085,-3.4208,-3.4217,-3.4226,-3.4371,0,0,-3.4254,-3.4258,0,0,0,0,0,0,0,0,-3.3869,-3.3886,-3.4018,-3.4019,-3.402,-3.4102,-3.4099,-3.4224,-3.4099,-3.4068,-3.4088,-3.4083,-3.418,-3.4191,-3.4223,-3.4376,-3.4382,-3.4255,-3.426,-3.4264,-3.4267,0,0,0,0,0,0,0,-3.3861,-3.388,-3.4075,-3.402,-3.4021,-3.4009,-3.4021,-3.4122,-3.4147,-3.407,-3.4067,-3.4081,-3.4179,-3.4214,-3.4226,-3.4384,-3.4255,-3.4263,-3.4268,-3.4272,-3.4664,-3.4669,0,0,0,0,0,0,-3.3853,-3.3874,-3.4071,-3.4078,-3.3932,-3.4018,-3.4031,-3.408,-3.4146,-3.4152,-3.4085,-3.4078,-3.4201,-3.4215,-3.423,-3.4405,-3.4264,-3.4273,-3.4278,-3.4659,-3.4665,-3.467,0,0,0,0,0,0,-3.3847,-3.3871,-3.4066,-3.3975,-3.3999,-3.4027,-3.4083,-3.4085,-3.412,-3.4157,-3.4161,-3.4116,-3.4198,-3.4217,-3.4336,-3.4409,-3.4277,-3.4285,-3.4653,-3.4661,-3.4668,-3.4756,0,0,0,0,0,0,-3.3839,-3.3869,-3.3923,-3.3977,-3.4004,-3.417,-3.4087,-3.409,-3.4135,-3.4128,-3.4187,-3.4193,-3.4196,-3.4323,-3.4345,-3.4419,-3.4292,-3.4647,-3.4657,-3.4665,-3.4746,-3.4765,-3.4781,0,0,0,0,0,-3.383,-3.3943,-3.3926,-3.395,-3.4072,-3.4174,-3.419,-3.419,-3.4141,-3.4197,-3.4221,-3.4191,-3.4397,-3.4336,-3.436,-3.4438,-3.4642,-3.4654,-3.4665,-3.4739,-3.4761,-3.4781,0,0,0,0,0,0,-3.3898,-3.395,-3.3932,-3.4065,-3.4116,-3.4165,-3.4235,-3.4214,-3.428,-3.427,-3.4269,-3.4283,-3.4407,-3.4434,-3.4365,-3.4582,-3.4512,-3.4529,-3.456,-3.4582,-3.4599,-3.4591,-3.43,0,0,0,0,0,-3.3928,-3.4006,-3.4047,-3.4161,-3.4187,-3.4207,-3.4251,-3.4247,-3.43,-3.4321,-3.4354,-3.4407,-3.4483,-3.4534,-3.4606,-3.4749,-3.4763,-3.4815,-3.4832,-3.4846,-3.4861,-3.4942,-3.4966,-3.4707,-3.4707,-3.4707,0,0,-3.3992,-3.403,-3.4079,-3.4176,-3.4214,-3.4296,-3.4225,-3.4314,-3.4375,-3.4335,-3.445,-3.4476,-3.4535,-3.4667,-3.4727,-3.4694,-3.4936,-3.4861,-3.4872,-3.4879,-3.4956,-3.498,-3.5002,-3.4715,-3.4713,-3.4712,0,0,-3.4151,-3.4187,-3.4287,-3.4327,-3.4386,-3.4398,-3.4422,-3.4475,-3.4491,-3.4606,-3.4578,-3.4651,-3.4782,-3.4826,-3.4866,-3.5042,-3.5018,-3.5066,-3.5158,-3.5236,-3.5256,-3.5274,-3.534,-3.5363,-3.508,-3.5081,-3.5081,0,-3.4224,-3.4344,-3.4341,-3.4432,-3.4477,-3.4443,-3.4546,-3.4585,-3.4665,-3.4697,-3.4658,-3.4823,-3.486,-3.5004,-3.5047,-3.5079,-3.5109,-3.506,-3.5253,-3.5271,-3.5288,-3.5351,-3.5375,-3.5086,-3.5086,-3.5085,-3.5084,0,-3.4431,-3.4516,-3.4589,-3.4668,-3.472,-3.4816,-3.4829,-3.4883,-3.4875,-3.4892,-3.5011,-3.5054,-3.5136,-3.5169,-3.5162,-3.5313,-3.529,-3.5252,-3.5183,-3.5319,-3.5378,-3.5401,-3.5094,-3.5092,-3.5091,-3.5089,0,0,-3.4637,-3.4712,-3.474,-3.4776,-3.4839,-3.4904,-3.5,-3.5079,-3.5126,-3.5183,-3.5265,-3.5377,-3.5343,-3.5388,-3.5385,-3.5454,-3.5594,-3.5408,-3.5409,-3.5443,-3.5766,-3.5795,-3.5823,-3.5577,-3.5582,-3.5586,-3.5762,0,-3.4802,-3.4969,-3.4969,-3.5124,-3.5203,-3.5173,-3.5256,-3.5305,-3.5324,-3.5395,-3.5415,-3.5496,-3.5444,-3.5471,-3.5537,-3.5563,-3.5659,-3.555,-3.5656,-3.566,-3.5644,-3.5853,-3.5885,-3.6048,-3.5784,-3.5788,-3.5791,0,-3.5017,-3.508,-3.5243,-3.5296,-3.5329,-3.5404,-3.5478,-3.5545,-3.5601,-3.561,-3.5661,-3.5648,-3.5747,-3.5673,-3.5811,-3.5737,-3.578,-3.58,-3.5806,-3.5818,-3.5735,-3.5873,-3.61,-3.6126,-3.5826,-3.5824,-3.5821,0,-3.5153,-3.5279,-3.5393,-3.5425,-3.5489,-3.5543,-3.5573,-3.5623,-3.5671,-3.5736,-3.5768,-3.5843,-3.5885,-3.5945,-3.5954,-3.5898,-3.6094,-3.6019,-3.6106,-3.6106,-3.615,-3.6147,-3.639,-3.6174,-3.6174,-3.6173,-3.6173,0,-3.5339,-3.544,-3.5456,-3.5526,-3.564,-3.5639,-3.5752,-3.5777,-3.5823,-3.5899,-3.5877,-3.5949,-3.5955,-3.603,-3.6037,-3.6152,-3.617,-3.6182,-3.6183,-3.6185,-3.6184,-3.6215,-3.6205,-3.618,-3.6178,-3.6177,-3.6176,0,-3.5511,-3.5525,-3.5648,-3.5699,-3.5714,-3.5796,-3.584,-3.5908,-3.5924,-3.6021,-3.6044,-3.6071,-3.6158,-3.6172,-3.6274,-3.6279,-3.6417,-3.6406,-3.6399,-3.6398,-3.6484,-3.6477,-3.6757,-3.6795,-3.6552,-3.6554,-3.6556,0,-3.5629,-3.5707,-3.5766,-3.5815,-3.5847,-3.5926,-3.5976,-3.5979,-3.6031,-3.6101,-3.6161,-3.6246,-3.6314,-3.6454,-3.6484,-3.6562,-3.6554,-3.6647,-3.6566,-3.6566,-3.6558,-3.6554,-3.6563,-3.6663,-3.6666,-3.6668,-3.6669,0,-3.5839,-3.5842,-3.5913,-3.5988,-3.6048,-3.6107,-3.6162,-3.6204,-3.6215,-3.6275,-3.6363,-3.6416,-3.6521,-3.6606,-3.6684,-3.6716,-3.6696,-3.6695,-3.6719,-3.6723,-3.6717,-3.6724,-3.6444,-3.6689,-3.6687,-3.6685,-3.6684,-3.6683,-3.5989,-3.6057,-3.611,-3.6191,-3.6233,-3.6286,-3.6353,-3.6378,-3.6452,-3.6537,-3.6534,-3.6632,-3.6687,-3.679,-3.6827,-3.6905,-3.6875,-3.691,-3.6919,-3.6929,-3.6938,-3.6703,-3.6919,-3.6918,-3.6918,-3.6917,-3.6917,0,-3.62,-3.6232,-3.6306,-3.6385,-3.6449,-3.6423,-3.6484,-3.654,-3.6626,-3.6678,-3.6746,-3.6848,-3.6931,-3.6967,-3.7049,-3.7105,-3.7098,-3.7126,-3.7123,-3.7131,-3.6959,-3.693,-3.7131,-3.7131,-3.713,-3.713,-3.713,-3.713,-3.6317,-3.6431,-3.6441,-3.6577,-3.6609,-3.6704,-3.6742,-3.6791,-3.6833,-3.6949,-3.7017,-3.704,-3.7086,-3.7172,-3.7247,-3.7256,-3.7288,-3.7322,-3.7326,-3.7165,-3.7143,-3.7123,-3.7096,-3.7328,-3.7328,-3.7493,-3.7494,-3.7495]},{"header":{"parameterUnit":"m.s-1","parameterCategory":1,"la1":30.2991,"la2":30.254,"lo1":-89.0895,"lo2":-89.0444,"dy":0.0017,"dx":0.0017,"nx":28,"ny":28,"refTime":"2025-11-23T09:00:00:Z","depth":0,"parameterNumber":3,"parameterNumberName":"V-component_of_WINDS"},"data":[0,0,0,0,0,0,0,0,0,0,0,0,0,0,0,0,0,0,0,0,0,0,0,0,0,0,0,0,0,0,0,0,0,0,0,0,0,0,0,0,0,0,0,0,0,0,0,0,0,0,0,0,0,0,0,0,0,0,-1.1356,-1.1355,0,-1.1303,-1.1302,-1.1301,-1.1251,-1.125,-1.125,-1.1249,-1.1193,-1.1192,-1.1191,0,0,0,0,0,0,0,0,0,0,0,0,0,-1.1412,-1.1411,-1.1356,-1.1355,-1.1355,-1.1303,-1.1302,-1.1301,-1.1251,-1.125,-1.1249,-1.1249,-1.1193,-1.1192,-1.1191,0,0,0,0,0,0,0,0,0,0,0,0,0,-1.1376,-1.1411,-1.1356,-1.1323,-1.132,-1.1303,-1.1302,-1.1301,-1.1251,-1.125,-1.1249,-1.1248,-1.1194,-1.1192,-1.1191,-1.1202,0,0,-1.1187,-1.1186,0,0,0,0,0,0,0,0,-1.1378,-1.1374,-1.1329,-1.1326,-1.1322,-1.1282,-1.1301,-1.1268,-1.1251,-1.1277,-1.1249,-1.1248,-1.1223,-1.122,-1.1212,-1.1199,-1.1197,-1.1187,-1.1186,-1.1185,-1.1185,0,0,0,0,0,0,0,-1.138,-1.1376,-1.1335,-1.1328,-1.1324,-1.131,-1.1304,-1.1294,-1.1256,-1.1275,-1.1271,-1.1265,-1.1221,-1.1213,-1.121,-1.1196,-1.1187,-1.1186,-1.1185,-1.1184,-1.1187,-1.1187,0,0,0,0,0,0,-1.1388,-1.1378,-1.1336,-1.1333,-1.1348,-1.131,-1.1303,-1.1296,-1.1256,-1.1249,-1.1266,-1.1263,-1.1216,-1.1212,-1.1208,-1.1216,-1.1185,-1.1184,-1.1183,-1.1186,-1.1187,-1.1188,0,0,0,0,0,0,-1.139,-1.1385,-1.1339,-1.1355,-1.1348,-1.131,-1.1302,-1.1295,-1.1287,-1.125,-1.1243,-1.1265,-1.1215,-1.121,-1.1203,-1.1213,-1.1183,-1.1182,-1.1185,-1.1186,-1.1187,-1.1234,0,0,0,0,0,0,-1.1391,-1.1386,-1.139,-1.1355,-1.1347,-1.1336,-1.1303,-1.1295,-1.1285,-1.1281,-1.1247,-1.124,-1.1214,-1.1205,-1.1202,-1.1211,-1.1181,-1.1184,-1.1185,-1.1187,-1.1231,-1.1237,-1.1241,0,0,0,0,0,-1.1394,-1.1406,-1.1391,-1.1386,-1.1352,-1.1337,-1.1332,-1.1302,-1.1286,-1.129,-1.1265,-1.1241,-1.1213,-1.1205,-1.1201,-1.121,-1.1183,-1.1185,-1.1187,-1.1229,-1.1236,-1.1241,0,0,0,0,0,0,-1.1443,-1.1401,-1.1384,-1.1385,-1.1365,-1.1328,-1.1332,-1.131,-1.1294,-1.129,-1.1253,-1.1245,-1.1243,-1.1225,-1.1217,-1.1217,-1.1194,-1.1196,-1.1228,-1.1234,-1.1239,-1.1243,-1.118,0,0,0,0,0,-1.1454,-1.1446,-1.1409,-1.1414,-1.1404,-1.137,-1.1362,-1.134,-1.1318,-1.1309,-1.1284,-1.1263,-1.1249,-1.1241,-1.1226,-1.1228,-1.1219,-1.1232,-1.1237,-1.1242,-1.1243,-1.1241,-1.1246,-1.1194,-1.1194,-1.1194,0,0,-1.1477,-1.1453,-1.145,-1.1423,-1.1405,-1.1396,-1.1363,-1.1356,-1.1349,-1.1308,-1.13,-1.1281,-1.1254,-1.1252,-1.125,-1.1238,-1.1255,-1.1244,-1.1248,-1.1247,-1.1243,-1.1248,-1.1253,-1.1196,-1.1195,-1.1195,0,0,-1.1514,-1.1495,-1.1496,-1.1478,-1.1451,-1.1428,-1.1428,-1.1395,-1.138,-1.1372,-1.1341,-1.1331,-1.1308,-1.129,-1.1278,-1.1306,-1.1282,-1.1302,-1.1328,-1.1326,-1.133,-1.1334,-1.1342,-1.1346,-1.1303,-1.1303,-1.1303,0,-1.1545,-1.1532,-1.1499,-1.1493,-1.1482,-1.1444,-1.1444,-1.1428,-1.1398,-1.139,-1.1377,-1.1346,-1.1326,-1.1318,-1.1324,-1.1316,-1.1314,-1.1306,-1.1333,-1.1336,-1.1338,-1.1346,-1.1349,-1.1306,-1.1306,-1.1305,-1.1305,0,-1.1571,-1.1562,-1.1566,-1.1537,-1.1526,-1.1523,-1.1489,-1.1481,-1.146,-1.1438,-1.1428,-1.1402,-1.1381,-1.1377,-1.1357,-1.1366,-1.1359,-1.134,-1.1316,-1.1346,-1.1353,-1.1355,-1.1309,-1.1309,-1.1308,-1.1307,0,0,-1.1638,-1.1591,-1.1593,-1.1578,-1.1545,-1.1537,-1.1531,-1.151,-1.1504,-1.1483,-1.1477,-1.1458,-1.1439,-1.1425,-1.1402,-1.1401,-1.1422,-1.1381,-1.138,-1.1389,-1.1428,-1.1443,-1.1447,-1.1407,-1.1407,-1.1407,-1.143,0,-1.1669,-1.1658,-1.1628,-1.1625,-1.1615,-1.1579,-1.1574,-1.1552,-1.1531,-1.1518,-1.1494,-1.148,-1.1458,-1.1449,-1.1446,-1.1421,-1.143,-1.1418,-1.1399,-1.1399,-1.1406,-1.145,-1.1466,-1.1488,-1.1433,-1.1433,-1.1433,0,-1.1703,-1.1685,-1.1682,-1.1647,-1.1642,-1.1638,-1.1615,-1.1604,-1.1578,-1.1562,-1.1546,-1.152,-1.1511,-1.1489,-1.1475,-1.1468,-1.1458,-1.1444,-1.1444,-1.144,-1.1418,-1.1447,-1.1495,-1.1498,-1.1437,-1.1437,-1.1437,0,-1.1751,-1.1726,-1.172,-1.1709,-1.1669,-1.1667,-1.165,-1.1623,-1.1611,-1.1591,-1.1583,-1.1562,-1.155,-1.1534,-1.1502,-1.149,-1.149,-1.1467,-1.1476,-1.1477,-1.1477,-1.1478,-1.1524,-1.1473,-1.1472,-1.1472,-1.1472,0,-1.1788,-1.1787,-1.1741,-1.1737,-1.1734,-1.1699,-1.1697,-1.1676,-1.1652,-1.1643,-1.161,-1.1602,-1.156,-1.1547,-1.1522,-1.1513,-1.1508,-1.1494,-1.1487,-1.1496,-1.1498,-1.1489,-1.1486,-1.1473,-1.1473,-1.1473,-1.1473,0,-1.1841,-1.181,-1.1801,-1.1764,-1.1754,-1.1754,-1.1721,-1.1715,-1.1691,-1.168,-1.1675,-1.1637,-1.1619,-1.1586,-1.1559,-1.1542,-1.1537,-1.1526,-1.1546,-1.1542,-1.1552,-1.1551,-1.1594,-1.1597,-1.1545,-1.1545,-1.1546,0,-1.1866,-1.1865,-1.1827,-1.1818,-1.1803,-1.179,-1.1778,-1.1742,-1.1731,-1.17,-1.1697,-1.1677,-1.1659,-1.1632,-1.1601,-1.1579,-1.1567,-1.1583,-1.1563,-1.1572,-1.1565,-1.1566,-1.1564,-1.1587,-1.1588,-1.1589,-1.1589,0,-1.1914,-1.1899,-1.1883,-1.1862,-1.1849,-1.183,-1.181,-1.1804,-1.1764,-1.1752,-1.1734,-1.172,-1.1691,-1.1671,-1.1644,-1.1625,-1.16,-1.1596,-1.1596,-1.1605,-1.1617,-1.1609,-1.1558,-1.1595,-1.1594,-1.1594,-1.1593,-1.1593,-1.1953,-1.1949,-1.1922,-1.1905,-1.1886,-1.1867,-1.1859,-1.1834,-1.1818,-1.1793,-1.1773,-1.1755,-1.1727,-1.1689,-1.1671,-1.1656,-1.1644,-1.1645,-1.1645,-1.1646,-1.1649,-1.162,-1.1651,-1.1651,-1.165,-1.165,-1.165,0,-1.1998,-1.1978,-1.1963,-1.1936,-1.1922,-1.19,-1.1876,-1.1865,-1.1851,-1.1827,-1.1809,-1.1787,-1.1766,-1.1733,-1.1709,-1.1703,-1.1691,-1.1698,-1.1698,-1.1694,-1.1662,-1.1663,-1.1709,-1.1709,-1.1709,-1.1709,-1.1709,-1.1709,-1.202,-1.2012,-1.1993,-1.1974,-1.1954,-1.1937,-1.1925,-1.1907,-1.1887,-1.1864,-1.1846,-1.1825,-1.1797,-1.1771,-1.175,-1.1741,-1.1733,-1.1744,-1.1731,-1.1702,-1.1696,-1.1691,-1.1692,-1.1743,-1.1743,-1.1763,-1.1764,-1.1764]}]]